TimeMST,TemperatureF,Dew PointF,Humidity,Sea Level PressureIn,VisibilityMPH,Wind Direction,Wind SpeedMPH,Gust SpeedMPH,PrecipitationIn,Events,Conditions,WindDirDegrees,DateUTC
12:53 AM,33.1,28.9,85,29.81,9.0,NNW,8.1,-,0.00,Snow,Light Snow,330,2012-12-15 07:53:00
1:53 AM,32.0,30.0,92,29.82,9.0,NNW,5.8,-,0.00,Snow,Light Snow,330,2012-12-15 08:53:00
2:18 AM,32.0,30.2,93,29.76,3.0,NNW,6.9,-,N/A,Snow,Light Snow,330,2012-12-15 09:18:00
2:32 AM,32.0,30.2,93,29.76,3.0,NNW,4.6,-,0.00,Snow,Light Snow,330,2012-12-15 09:32:00
2:53 AM,32.0,30.0,92,29.83,9.0,NW,6.9,-,0.00,Snow,Light Snow,310,2012-12-15 09:53:00
3:53 AM,30.9,30.0,96,29.82,10.0,South,6.9,-,0.00,,Overcast,190,2012-12-15 10:53:00
4:53 AM,32.0,28.9,88,29.82,10.0,SSW,9.2,-,0.00,,Overcast,200,2012-12-15 11:53:00
5:53 AM,33.1,30.0,89,29.83,10.0,WSW,11.5,-,N/A,,Overcast,250,2012-12-15 12:53:00
6:53 AM,30.9,28.9,92,29.84,9.0,South,6.9,-,N/A,,Mostly Cloudy,180,2012-12-15 13:53:00
7:53 AM,30.0,28.9,96,29.85,10.0,SW,3.5,-,N/A,Fog,Patches of Fog,220,2012-12-15 14:53:00
9:53 AM,33.8,26.6,75,29.86,10.0,SW,4.6,-,N/A,,Mostly Cloudy,220,2012-12-15 16:53:00
10:53 AM,35.1,27.0,72,29.85,10.0,WSW,3.5,-,N/A,,Scattered Clouds,250,2012-12-15 17:53:00
11:53 AM,35.1,24.1,64,29.82,10.0,NNW,5.8,-,N/A,,Mostly Cloudy,340,2012-12-15 18:53:00
12:53 PM,36.0,25.0,64,29.80,10.0,Calm,Calm,-,N/A,,Scattered Clouds,0,2012-12-15 19:53:00
1:53 PM,37.0,25.0,62,29.78,10.0,SSW,3.5,-,N/A,,Partly Cloudy,200,2012-12-15 20:53:00
2:53 PM,37.0,25.0,62,29.76,10.0,Calm,Calm,-,N/A,,Partly Cloudy,0,2012-12-15 21:53:00
3:53 PM,36.0,24.1,62,29.77,10.0,South,4.6,-,N/A,,Partly Cloudy,180,2012-12-15 22:53:00
4:53 PM,33.1,21.9,64,29.77,10.0,Calm,Calm,-,N/A,,Clear,0,2012-12-15 23:53:00
5:53 PM,32.0,24.1,73,29.76,10.0,SSE,4.6,-,N/A,,Clear,150,2012-12-16 00:53:00
6:53 PM,30.0,25.0,82,29.75,10.0,SSE,5.8,-,N/A,,Clear,160,2012-12-16 01:53:00
7:53 PM,28.9,24.1,82,29.75,10.0,SW,5.8,-,N/A,,Clear,220,2012-12-16 02:53:00
8:53 PM,30.0,21.9,72,29.73,10.0,SSW,4.6,-,N/A,,Clear,210,2012-12-16 03:53:00
9:53 PM,28.0,23.0,81,29.72,10.0,SW,6.9,-,N/A,,Clear,220,2012-12-16 04:53:00
10:53 PM,25.0,21.0,85,29.71,10.0,Calm,Calm,-,N/A,,Clear,0,2012-12-16 05:53:00
11:53 PM,25.0,21.9,88,29.70,10.0,SW,6.9,-,N/A,,Clear,220,2012-12-16 06:53:00